Year,Month,Day,Hour,Minute,Value (Times are PST for temperature in C)
2016,08,11,07,16,15.30
2016,08,11,07,17,15.30
2016,08,11,07,18,15.30
2016,08,11,07,19,15.30
2016,08,11,07,20,15.30
2016,08,11,07,21,15.30
2016,08,11,07,22,15.40
2016,08,11,07,23,15.40
2016,08,11,07,24,15.50
2016,08,11,07,25,15.50
2016,08,11,07,26,15.50
2016,08,11,07,27,15.60
2016,08,11,07,28,15.60
2016,08,11,07,29,15.60
2016,08,11,07,30,15.70
2016,08,11,07,31,15.70
2016,08,11,07,32,15.70
2016,08,11,07,33,15.70
2016,08,11,07,34,15.80
2016,08,11,07,35,15.80
2016,08,11,07,36,15.80
2016,08,11,07,37,15.80
2016,08,11,07,38,15.90
2016,08,11,07,39,15.90
2016,08,11,07,40,15.90
2016,08,11,07,41,16.00
2016,08,11,07,42,16.00
2016,08,11,07,43,16.10
2016,08,11,07,44,16.10
2016,08,11,07,45,16.10
2016,08,11,07,46,16.10
2016,08,11,07,47,16.10
2016,08,11,07,48,16.20
2016,08,11,07,49,16.20
2016,08,11,07,50,16.20
2016,08,11,07,51,16.20
2016,08,11,07,52,16.30
2016,08,11,07,53,16.30
2016,08,11,07,54,16.30
2016,08,11,07,55,16.30
2016,08,11,07,56,16.40
2016,08,11,07,57,16.40
2016,08,11,07,58,16.40
2016,08,11,07,59,16.50
2016,08,11,08,00,16.60
2016,08,11,08,01,16.60
2016,08,11,08,02,16.60
2016,08,11,08,03,16.70
2016,08,11,08,04,16.80
2016,08,11,08,05,16.80
2016,08,11,08,06,16.80
2016,08,11,08,07,16.80
2016,08,11,08,08,16.90
2016,08,11,08,09,17.00
2016,08,11,08,10,17.10
2016,08,11,08,11,17.20
2016,08,11,08,12,17.30
2016,08,11,08,13,17.30
2016,08,11,08,14,17.30
2016,08,11,08,15,17.40
2016,08,11,08,16,17.40
2016,08,11,08,17,17.50
2016,08,11,08,18,17.50
2016,08,11,08,19,17.60
2016,08,11,08,20,17.60
2016,08,11,08,21,17.70
2016,08,11,08,22,17.70
2016,08,11,08,23,17.70
2016,08,11,08,24,17.80
2016,08,11,08,25,17.80
2016,08,11,08,26,17.80
2016,08,11,08,27,17.90
2016,08,11,08,28,17.90
2016,08,11,08,29,18.00
2016,08,11,08,30,18.10
2016,08,11,08,31,18.20
2016,08,11,08,32,18.20
2016,08,11,08,33,18.20
2016,08,11,08,34,18.30
2016,08,11,08,35,18.40
2016,08,11,08,36,18.40
2016,08,11,08,37,18.40
2016,08,11,08,38,18.40
2016,08,11,08,39,18.40
2016,08,11,08,40,18.50
2016,08,11,08,41,18.50
2016,08,11,08,42,18.50
2016,08,11,08,43,18.60
2016,08,11,08,44,18.60
2016,08,11,08,45,18.60
2016,08,11,08,46,18.60
2016,08,11,08,47,18.60
2016,08,11,08,48,18.60
2016,08,11,08,49,18.60
2016,08,11,08,50,18.60
2016,08,11,08,51,18.60
2016,08,11,08,52,18.70
2016,08,11,08,53,18.70
2016,08,11,08,54,18.70
2016,08,11,08,55,18.70
2016,08,11,08,56,18.70
2016,08,11,08,57,18.70
2016,08,11,08,58,18.80
2016,08,11,08,59,18.80
2016,08,11,09,00,18.80
2016,08,11,09,01,18.80
2016,08,11,09,02,18.80
2016,08,11,09,03,18.80
2016,08,11,09,04,18.80
2016,08,11,09,05,18.80
2016,08,11,09,06,18.80
2016,08,11,09,07,18.80
2016,08,11,09,08,18.80
2016,08,11,09,09,18.90
2016,08,11,09,10,19.00
2016,08,11,09,11,19.10
2016,08,11,09,12,19.10
2016,08,11,09,13,19.10
2016,08,11,09,14,19.00
2016,08,11,09,15,18.90
2016,08,11,09,16,18.90
2016,08,11,09,17,18.80
2016,08,11,09,18,18.80
2016,08,11,09,19,18.80
2016,08,11,09,20,18.80
2016,08,11,09,21,18.80
2016,08,11,09,22,18.80
2016,08,11,09,23,18.80
2016,08,11,09,24,18.80
2016,08,11,09,25,18.80
2016,08,11,09,26,18.80
2016,08,11,09,27,18.80
2016,08,11,09,28,18.80
2016,08,11,09,29,18.80
2016,08,11,09,30,18.90
2016,08,11,09,31,18.90
2016,08,11,09,32,18.90
2016,08,11,09,33,19.00
2016,08,11,09,34,19.00
2016,08,11,09,35,19.10
2016,08,11,09,36,19.10
2016,08,11,09,37,19.10
2016,08,11,09,38,19.10
2016,08,11,09,39,19.10
2016,08,11,09,40,19.10
2016,08,11,09,41,19.10
2016,08,11,09,42,19.10
2016,08,11,09,43,19.20
2016,08,11,09,44,19.20
2016,08,11,09,45,19.30
2016,08,11,09,46,19.30
2016,08,11,09,47,19.40
2016,08,11,09,48,19.40
2016,08,11,09,49,19.40
2016,08,11,09,50,19.40
2016,08,11,09,51,19.40
2016,08,11,09,52,19.40
2016,08,11,09,53,19.40
2016,08,11,09,54,19.40
2016,08,11,09,55,19.40
2016,08,11,09,56,19.40
2016,08,11,09,57,19.40
2016,08,11,09,58,19.40
2016,08,11,09,59,19.40
2016,08,11,10,00,19.40
2016,08,11,10,01,19.40
2016,08,11,10,02,19.40
2016,08,11,10,03,19.40
2016,08,11,10,04,19.40
2016,08,11,10,05,19.40
2016,08,11,10,06,19.40
2016,08,11,10,07,19.40
2016,08,11,10,08,19.40
2016,08,11,10,09,19.40
2016,08,11,10,10,19.40
2016,08,11,10,11,19.40
2016,08,11,10,12,19.40
2016,08,11,10,13,19.40
2016,08,11,10,14,19.40
2016,08,11,10,15,19.40
2016,08,11,10,16,19.50
2016,08,11,10,17,19.50
2016,08,11,10,18,19.50
2016,08,11,10,19,19.50
2016,08,11,10,20,19.40
2016,08,11,10,21,19.40
2016,08,11,10,22,19.40
2016,08,11,10,23,19.40
2016,08,11,10,24,19.40
2016,08,11,10,25,19.50
2016,08,11,10,26,19.50
2016,08,11,10,27,19.70
2016,08,11,10,28,19.70
2016,08,11,10,29,19.70
2016,08,11,10,30,19.80
2016,08,11,10,31,19.80
2016,08,11,10,32,19.80
2016,08,11,10,33,19.80
2016,08,11,10,34,19.80
2016,08,11,10,35,19.80
2016,08,11,10,36,19.80
2016,08,11,10,37,19.80
2016,08,11,10,38,19.80
2016,08,11,10,39,19.80
2016,08,11,10,40,19.80
2016,08,11,10,41,19.90
2016,08,11,10,42,19.90
2016,08,11,10,43,20.00
2016,08,11,10,44,20.10
2016,08,11,10,45,20.10
2016,08,11,10,46,20.10
2016,08,11,10,47,20.10
2016,08,11,10,48,20.00
2016,08,11,10,49,19.90
2016,08,11,10,50,19.80
2016,08,11,10,51,19.70
2016,08,11,10,52,19.70
2016,08,11,10,53,19.60
2016,08,11,10,54,19.60
2016,08,11,10,55,19.60
2016,08,11,10,56,19.50
2016,08,11,10,57,19.50
2016,08,11,10,58,19.50
2016,08,11,10,59,19.50
2016,08,11,11,00,19.60
2016,08,11,11,01,19.60
2016,08,11,11,02,19.70
2016,08,11,11,03,19.70
2016,08,11,11,04,19.70
2016,08,11,11,05,19.80
2016,08,11,11,06,19.80
2016,08,11,11,07,19.80
2016,08,11,11,08,19.90
2016,08,11,11,09,19.90
2016,08,11,11,10,20.00
2016,08,11,11,11,20.00
2016,08,11,11,12,20.00
2016,08,11,11,13,20.10
2016,08,11,11,14,20.00
2016,08,11,11,15,20.00
2016,08,11,11,16,20.10
2016,08,11,11,17,20.20
2016,08,11,11,18,20.20
2016,08,11,11,19,20.20
2016,08,11,11,20,20.20
2016,08,11,11,21,20.30
2016,08,11,11,22,20.30
2016,08,11,11,23,20.30
2016,08,11,11,24,20.40
2016,08,11,11,25,20.40
2016,08,11,11,26,20.40
2016,08,11,11,27,20.30
2016,08,11,11,28,20.30
2016,08,11,11,29,20.40
2016,08,11,11,30,20.50
2016,08,11,11,31,20.60
2016,08,11,11,32,20.70
2016,08,11,11,33,20.80
2016,08,11,11,34,20.90
2016,08,11,11,35,20.90
2016,08,11,11,36,20.90
2016,08,11,11,37,20.90
2016,08,11,11,38,20.90
2016,08,11,11,39,20.90
2016,08,11,11,40,20.90
2016,08,11,11,41,20.90
2016,08,11,11,42,20.90
2016,08,11,11,43,20.90
2016,08,11,11,44,20.80
2016,08,11,11,45,20.80
2016,08,11,11,46,20.80
2016,08,11,11,47,20.80
2016,08,11,11,48,20.80
2016,08,11,11,49,20.80
2016,08,11,11,50,20.70
2016,08,11,11,51,20.70
2016,08,11,11,52,20.70
2016,08,11,11,53,20.60
2016,08,11,11,54,20.60
2016,08,11,11,55,20.60
2016,08,11,11,56,20.60
2016,08,11,11,57,20.60
2016,08,11,11,58,20.60
2016,08,11,11,59,20.60
2016,08,11,12,00,20.60
2016,08,11,12,01,20.60
2016,08,11,12,02,20.70
2016,08,11,12,03,20.70
2016,08,11,12,04,20.80
2016,08,11,12,05,20.80
2016,08,11,12,06,20.80
2016,08,11,12,07,20.80
2016,08,11,12,08,20.70
2016,08,11,12,09,20.70
2016,08,11,12,10,20.70
2016,08,11,12,11,20.70
2016,08,11,12,12,20.70
2016,08,11,12,13,20.70
2016,08,11,12,14,20.70
2016,08,11,12,15,20.70
2016,08,11,12,16,20.80
2016,08,11,12,17,20.80
2016,08,11,12,18,20.80
2016,08,11,12,19,20.80
2016,08,11,12,20,20.80
2016,08,11,12,21,20.80
2016,08,11,12,22,20.80
2016,08,11,12,23,20.80
2016,08,11,12,24,20.80
2016,08,11,12,25,20.80
2016,08,11,12,26,20.80
2016,08,11,12,27,20.80
2016,08,11,12,28,20.80
2016,08,11,12,29,20.80
2016,08,11,12,30,20.80
2016,08,11,12,31,20.80
2016,08,11,12,32,20.80
2016,08,11,12,33,20.90
2016,08,11,12,34,20.90
2016,08,11,12,35,21.00
2016,08,11,12,36,21.00
2016,08,11,12,37,21.10
2016,08,11,12,38,21.20
2016,08,11,12,39,21.20
2016,08,11,12,40,21.30
2016,08,11,12,41,21.40
2016,08,11,12,42,21.50
2016,08,11,12,43,21.50
2016,08,11,12,44,21.60
2016,08,11,12,45,21.60
2016,08,11,12,46,21.60
2016,08,11,12,47,21.70
2016,08,11,12,48,21.70
2016,08,11,12,49,21.70
2016,08,11,12,50,21.70
2016,08,11,12,51,21.70
2016,08,11,12,52,21.70
2016,08,11,12,53,21.70
2016,08,11,12,54,21.70
2016,08,11,12,55,21.70
2016,08,11,12,56,21.60
2016,08,11,12,57,21.60
2016,08,11,12,58,21.60
2016,08,11,12,59,21.60
2016,08,11,13,00,21.60
2016,08,11,13,01,21.70
2016,08,11,13,02,21.60
2016,08,11,13,03,21.60
2016,08,11,13,04,21.50
2016,08,11,13,05,21.40
2016,08,11,13,06,21.40
2016,08,11,13,07,21.40
2016,08,11,13,08,21.40
2016,08,11,13,09,21.40
2016,08,11,13,10,21.40
2016,08,11,13,11,21.40
2016,08,11,13,12,21.30
2016,08,11,13,13,21.30
2016,08,11,13,14,21.40
2016,08,11,13,15,21.40
2016,08,11,13,16,21.50
2016,08,11,13,17,21.60
2016,08,11,13,18,21.60
2016,08,11,13,19,21.60
2016,08,11,13,20,21.60
2016,08,11,13,21,21.60
2016,08,11,13,22,21.60
2016,08,11,13,23,21.60
2016,08,11,13,24,21.70
2016,08,11,13,25,21.70
2016,08,11,13,26,21.60
2016,08,11,13,27,21.60
2016,08,11,13,28,21.70
2016,08,11,13,29,21.70
2016,08,11,13,30,21.70
2016,08,11,13,31,21.70
2016,08,11,13,32,21.70
2016,08,11,13,33,21.80
2016,08,11,13,34,21.70
2016,08,11,13,35,21.70
2016,08,11,13,36,21.70
2016,08,11,13,37,21.70
2016,08,11,13,38,21.60
2016,08,11,13,39,21.60
2016,08,11,13,40,21.50
2016,08,11,13,41,21.40
2016,08,11,13,42,21.50
2016,08,11,13,43,21.40
2016,08,11,13,44,21.40
2016,08,11,13,45,21.30
2016,08,11,13,46,21.20
2016,08,11,13,47,21.20
2016,08,11,13,48,21.20
2016,08,11,13,49,21.20
2016,08,11,13,50,21.30
2016,08,11,13,51,21.40
2016,08,11,13,52,21.50
2016,08,11,13,53,21.50
2016,08,11,13,54,21.60
2016,08,11,13,55,21.60
2016,08,11,13,56,21.60
2016,08,11,13,57,21.60
2016,08,11,13,58,21.60
2016,08,11,13,59,21.60
2016,08,11,14,00,21.60
2016,08,11,14,01,21.70
2016,08,11,14,02,21.70
2016,08,11,14,03,21.70
2016,08,11,14,04,21.70
2016,08,11,14,05,21.70
2016,08,11,14,06,21.70
2016,08,11,14,07,21.70
2016,08,11,14,08,21.70
2016,08,11,14,09,21.80
2016,08,11,14,10,21.80
2016,08,11,14,11,21.90
2016,08,11,14,12,21.90
2016,08,11,14,13,22.00
2016,08,11,14,14,22.00
2016,08,11,14,15,22.10
2016,08,11,14,16,22.00
2016,08,11,14,17,22.10
2016,08,11,14,18,22.10
2016,08,11,14,19,22.10
2016,08,11,14,20,22.00
2016,08,11,14,21,22.00
2016,08,11,14,22,22.00
2016,08,11,14,23,22.00
2016,08,11,14,24,22.10
2016,08,11,14,25,22.10
2016,08,11,14,26,22.10
2016,08,11,14,27,22.10
2016,08,11,14,28,22.20
2016,08,11,14,29,22.20
2016,08,11,14,30,22.20
2016,08,11,14,31,22.20
2016,08,11,14,32,22.20
2016,08,11,14,33,22.20
2016,08,11,14,34,22.30
2016,08,11,14,35,22.30
2016,08,11,14,36,22.30
2016,08,11,14,37,22.30
2016,08,11,14,38,22.30
2016,08,11,14,39,22.20
2016,08,11,14,40,22.30
2016,08,11,14,41,22.20
2016,08,11,14,42,22.20
2016,08,11,14,43,22.20
2016,08,11,14,44,22.20
2016,08,11,14,45,22.20
2016,08,11,14,46,22.30
2016,08,11,14,47,22.30
2016,08,11,14,48,22.30
2016,08,11,14,49,22.40
2016,08,11,14,50,22.40
2016,08,11,14,51,22.40
2016,08,11,14,52,22.40
2016,08,11,14,53,22.50
2016,08,11,14,54,22.50
2016,08,11,14,55,22.50
2016,08,11,14,56,22.50
2016,08,11,14,57,22.60
2016,08,11,14,58,22.60
2016,08,11,14,59,22.60
2016,08,11,15,00,22.70
2016,08,11,15,01,22.60
2016,08,11,15,02,22.60
2016,08,11,15,03,22.50
2016,08,11,15,04,22.30
2016,08,11,15,05,22.40
2016,08,11,15,06,22.40
2016,08,11,15,07,22.40
2016,08,11,15,08,22.50
2016,08,11,15,09,22.50
2016,08,11,15,10,22.60
2016,08,11,15,11,22.70
2016,08,11,15,12,22.80
2016,08,11,15,13,22.90
2016,08,11,15,14,22.90
2016,08,11,15,15,23.00
2016,08,11,15,16,23.10
2016,08,11,15,17,23.10
2016,08,11,15,18,23.20
2016,08,11,15,19,23.00
2016,08,11,15,20,23.00
2016,08,11,15,21,23.00
2016,08,11,15,22,23.00
2016,08,11,15,23,23.00
2016,08,11,15,24,23.00
2016,08,11,15,25,23.00
2016,08,11,15,26,23.00
2016,08,11,15,27,23.00
2016,08,11,15,28,23.00
2016,08,11,15,29,23.10
2016,08,11,15,30,23.10
2016,08,11,15,31,23.10
2016,08,11,15,32,23.10
2016,08,11,15,33,23.10
2016,08,11,15,34,23.10
2016,08,11,15,35,23.10
2016,08,11,15,36,23.20
2016,08,11,15,37,23.10
2016,08,11,15,38,23.10
2016,08,11,15,39,23.10
2016,08,11,15,40,23.10
2016,08,11,15,41,23.20
2016,08,11,15,42,23.30
2016,08,11,15,43,23.30
2016,08,11,15,44,23.30
2016,08,11,15,45,23.40
2016,08,11,15,46,23.40
2016,08,11,15,47,23.40
2016,08,11,15,48,23.30
2016,08,11,15,49,23.30
2016,08,11,15,50,23.20
2016,08,11,15,51,23.20
2016,08,11,15,52,23.20
2016,08,11,15,53,23.20
2016,08,11,15,54,23.20
2016,08,11,15,55,23.20
2016,08,11,15,56,23.20
2016,08,11,15,57,23.20
2016,08,11,15,58,23.30
2016,08,11,15,59,23.30
2016,08,11,16,00,23.40
2016,08,11,16,01,23.30
2016,08,11,16,02,23.30
2016,08,11,16,03,23.30
2016,08,11,16,04,23.20
2016,08,11,16,05,23.20
2016,08,11,16,06,23.20
2016,08,11,16,07,23.30
2016,08,11,16,08,23.30
2016,08,11,16,09,23.40
2016,08,11,16,10,23.40
2016,08,11,16,11,23.40
2016,08,11,16,12,23.50
2016,08,11,16,13,23.60
2016,08,11,16,14,23.60
2016,08,11,16,15,23.70
2016,08,11,16,16,23.80
2016,08,11,16,17,23.80
2016,08,11,16,18,23.80
2016,08,11,16,19,23.80
2016,08,11,16,20,23.70
2016,08,11,16,21,23.70
2016,08,11,16,22,23.60
2016,08,11,16,23,23.60
2016,08,11,16,24,23.60
2016,08,11,16,25,23.60
2016,08,11,16,26,23.60
2016,08,11,16,27,23.70
2016,08,11,16,28,23.80
2016,08,11,16,29,23.90
2016,08,11,16,30,23.90
2016,08,11,16,31,23.90
2016,08,11,16,32,23.80
2016,08,11,16,33,23.80
2016,08,11,16,34,23.70
2016,08,11,16,35,23.70
2016,08,11,16,36,23.70
2016,08,11,16,37,23.70
2016,08,11,16,38,23.70
2016,08,11,16,39,23.70
2016,08,11,16,40,23.80
2016,08,11,16,41,23.80
2016,08,11,16,42,23.70
2016,08,11,16,43,23.70
2016,08,11,16,44,23.70
2016,08,11,16,45,23.70
2016,08,11,16,46,23.70
2016,08,11,16,47,23.60
2016,08,11,16,48,23.60
2016,08,11,16,49,23.50
2016,08,11,16,50,23.50
2016,08,11,16,51,23.60
2016,08,11,16,52,23.60
2016,08,11,16,53,23.70
2016,08,11,16,54,23.80
2016,08,11,16,55,23.80
2016,08,11,16,56,23.90
2016,08,11,16,57,23.90
2016,08,11,16,58,23.90
2016,08,11,16,59,23.90
2016,08,11,17,00,23.90
2016,08,11,17,01,23.90
2016,08,11,17,02,23.90
2016,08,11,17,03,23.80
2016,08,11,17,04,23.80
2016,08,11,17,05,23.80
2016,08,11,17,06,23.80
2016,08,11,17,07,23.80
2016,08,11,17,08,23.90
2016,08,11,17,09,23.90
2016,08,11,17,10,23.90
2016,08,11,17,11,23.90
2016,08,11,17,12,24.00
2016,08,11,17,13,24.10
2016,08,11,17,14,24.10
2016,08,11,17,15,24.10
2016,08,11,17,16,24.20
2016,08,11,17,17,24.30
2016,08,11,17,18,24.30
2016,08,11,17,19,24.30
2016,08,11,17,20,24.30
2016,08,11,17,21,24.30
2016,08,11,17,22,24.30
2016,08,11,17,23,24.30
2016,08,11,17,24,24.40
2016,08,11,17,25,24.40
2016,08,11,17,26,24.40
2016,08,11,17,27,24.40
2016,08,11,17,28,24.40
2016,08,11,17,29,24.40
2016,08,11,17,30,24.40
2016,08,11,17,31,24.50
2016,08,11,17,32,24.50
2016,08,11,17,33,24.60
2016,08,11,17,34,24.60
2016,08,11,17,35,24.60
2016,08,11,17,36,24.60
2016,08,11,17,37,24.50
2016,08,11,17,38,24.50
2016,08,11,17,39,24.40
2016,08,11,17,40,24.40
2016,08,11,17,41,24.40
2016,08,11,17,42,24.40
2016,08,11,17,43,24.30
2016,08,11,17,44,24.20
2016,08,11,17,45,24.10
2016,08,11,17,46,24.10
2016,08,11,17,47,24.00
2016,08,11,17,48,24.00
2016,08,11,17,49,23.90
2016,08,11,17,50,24.00
2016,08,11,17,51,24.00
2016,08,11,17,52,24.10
2016,08,11,17,53,24.10
2016,08,11,17,54,24.10
2016,08,11,17,55,24.10
2016,08,11,17,56,24.10
2016,08,11,17,57,24.10
2016,08,11,17,58,24.10
2016,08,11,17,59,24.20
2016,08,11,18,00,24.30
2016,08,11,18,01,24.30
2016,08,11,18,02,24.40
2016,08,11,18,03,24.30
2016,08,11,18,04,24.30
2016,08,11,18,05,24.30
2016,08,11,18,06,24.30
2016,08,11,18,07,24.30
2016,08,11,18,08,24.40
2016,08,11,18,09,24.40
2016,08,11,18,10,24.40
2016,08,11,18,11,24.40
2016,08,11,18,12,24.40
2016,08,11,18,13,24.30
2016,08,11,18,14,24.30
2016,08,11,18,15,24.30
2016,08,11,18,16,24.30
2016,08,11,18,17,24.30
2016,08,11,18,18,24.30
2016,08,11,18,19,24.30
2016,08,11,18,20,24.40
2016,08,11,18,21,24.50
2016,08,11,18,22,24.50
2016,08,11,18,23,24.60
2016,08,11,18,24,24.60
2016,08,11,18,25,24.70
2016,08,11,18,26,24.70
2016,08,11,18,27,24.80
2016,08,11,18,28,24.80
2016,08,11,18,29,24.80
2016,08,11,18,30,24.80
2016,08,11,18,31,24.90
2016,08,11,18,32,24.90
2016,08,11,18,33,24.90
2016,08,11,18,34,24.90
2016,08,11,18,35,24.80
2016,08,11,18,36,24.80
2016,08,11,18,37,24.80
2016,08,11,18,38,24.80
2016,08,11,18,39,24.70
2016,08,11,18,40,24.70
2016,08,11,18,41,24.70
2016,08,11,18,42,24.60
2016,08,11,18,43,24.60
2016,08,11,18,44,24.50
2016,08,11,18,45,24.40
2016,08,11,18,46,24.40
2016,08,11,18,47,24.40
2016,08,11,18,48,24.40
2016,08,11,18,49,24.30
2016,08,11,18,50,24.30
2016,08,11,18,51,24.40
2016,08,11,18,52,24.40
2016,08,11,18,53,24.40
2016,08,11,18,54,24.40
2016,08,11,18,55,24.40
2016,08,11,18,56,24.40
2016,08,11,18,57,24.30
2016,08,11,18,58,24.30
2016,08,11,18,59,24.30
2016,08,11,19,00,24.30
2016,08,11,19,01,24.30
2016,08,11,19,02,24.30
2016,08,11,19,03,24.30
2016,08,11,19,04,24.40
2016,08,11,19,05,24.40
2016,08,11,19,06,24.40
2016,08,11,19,07,24.40
2016,08,11,19,08,24.50
2016,08,11,19,09,24.50
2016,08,11,19,10,24.50
2016,08,11,19,11,24.50
2016,08,11,19,12,24.50
2016,08,11,19,13,24.50
2016,08,11,19,14,24.50
2016,08,11,19,15,24.50
2016,08,11,19,16,24.50
2016,08,11,19,17,24.50
2016,08,11,19,18,24.50
2016,08,11,19,19,24.40
2016,08,11,19,20,24.40
2016,08,11,19,21,24.40
2016,08,11,19,22,24.30
2016,08,11,19,23,24.20
2016,08,11,19,24,24.20
2016,08,11,19,25,24.10
2016,08,11,19,26,24.10
2016,08,11,19,27,24.10
2016,08,11,19,28,24.10
2016,08,11,19,29,24.10
2016,08,11,19,30,24.20
2016,08,11,19,31,24.30
2016,08,11,19,32,24.40
2016,08,11,19,33,24.40
2016,08,11,19,34,24.50
2016,08,11,19,35,24.60
2016,08,11,19,36,24.60
2016,08,11,19,37,24.70
2016,08,11,19,38,24.70
2016,08,11,19,39,24.70
2016,08,11,19,40,24.80
2016,08,11,19,41,24.80
2016,08,11,19,42,24.80
2016,08,11,19,43,24.80
2016,08,11,19,44,24.90
2016,08,11,19,45,24.90
2016,08,11,19,46,24.90
2016,08,11,19,47,24.90
2016,08,11,19,48,24.80
2016,08,11,19,49,24.80
2016,08,11,19,50,24.80
2016,08,11,19,51,24.80
2016,08,11,19,52,24.70
2016,08,11,19,53,24.60
2016,08,11,19,54,24.60
2016,08,11,19,55,24.60
2016,08,11,19,56,24.50
2016,08,11,19,57,24.50
2016,08,11,19,58,24.50
2016,08,11,19,59,24.40
2016,08,11,20,00,24.40
2016,08,11,20,01,24.40
2016,08,11,20,02,24.30
2016,08,11,20,03,24.30
2016,08,11,20,04,24.30
2016,08,11,20,05,24.30
2016,08,11,20,06,24.20
2016,08,11,20,07,24.10
2016,08,11,20,08,24.10
2016,08,11,20,09,24.00
2016,08,11,20,10,23.90
2016,08,11,20,11,23.90
2016,08,11,20,12,23.80
2016,08,11,20,13,23.70
2016,08,11,20,14,23.60
2016,08,11,20,15,23.50
2016,08,11,20,16,23.40
2016,08,11,20,17,23.30
2016,08,11,20,18,23.30
2016,08,11,20,19,23.10
2016,08,11,20,20,23.00
2016,08,11,20,21,22.90
2016,08,11,20,22,22.80
2016,08,11,20,23,22.80
2016,08,11,20,24,22.70
2016,08,11,20,25,22.60
2016,08,11,20,26,22.60
2016,08,11,20,27,22.50
2016,08,11,20,28,22.50
2016,08,11,20,29,22.40
2016,08,11,20,30,22.30
2016,08,11,20,31,22.30
2016,08,11,20,32,22.30
2016,08,11,20,33,22.30
2016,08,11,20,34,22.20
2016,08,11,20,35,22.20
2016,08,11,20,36,22.20
2016,08,11,20,37,22.20
2016,08,11,20,38,22.20
2016,08,11,20,39,22.20
2016,08,11,20,40,22.20
2016,08,11,20,41,22.10
2016,08,11,20,42,22.10
2016,08,11,20,43,22.10
2016,08,11,20,44,22.10
2016,08,11,20,45,22.10
2016,08,11,20,46,22.10
2016,08,11,20,47,22.10
2016,08,11,20,48,22.10
2016,08,11,20,49,22.20
2016,08,11,20,50,22.20
2016,08,11,20,51,22.20
2016,08,11,20,52,22.20
2016,08,11,20,53,22.10
2016,08,11,20,54,22.10
2016,08,11,20,55,22.10
2016,08,11,20,56,22.10
2016,08,11,20,57,22.20
2016,08,11,20,58,22.20
2016,08,11,20,59,22.10
2016,08,11,21,00,22.10
2016,08,11,21,01,22.10
2016,08,11,21,02,22.10
2016,08,11,21,03,22.10
2016,08,11,21,04,22.10
2016,08,11,21,05,22.00
2016,08,11,21,06,22.00
2016,08,11,21,07,22.00
2016,08,11,21,08,22.00
2016,08,11,21,09,22.00
2016,08,11,21,10,22.00
2016,08,11,21,11,21.90
2016,08,11,21,12,21.90
2016,08,11,21,13,21.90
2016,08,11,21,14,21.90
2016,08,11,21,15,21.80
2016,08,11,21,16,21.80
2016,08,11,21,17,21.80
2016,08,11,21,18,21.80
2016,08,11,21,19,21.70
2016,08,11,21,20,21.70
2016,08,11,21,21,21.70
2016,08,11,21,22,21.70
2016,08,11,21,23,21.60
2016,08,11,21,24,21.60
2016,08,11,21,25,21.60
2016,08,11,21,26,21.50
2016,08,11,21,27,21.50
2016,08,11,21,28,21.50
2016,08,11,21,29,21.50
2016,08,11,21,30,21.50
2016,08,11,21,31,21.50
2016,08,11,21,32,21.50
2016,08,11,21,33,21.40
2016,08,11,21,34,21.40
2016,08,11,21,35,21.40
2016,08,11,21,36,21.40
2016,08,11,21,37,21.40
2016,08,11,21,38,21.30
2016,08,11,21,39,21.30
2016,08,11,21,40,21.30
2016,08,11,21,41,21.30
2016,08,11,21,42,21.30
2016,08,11,21,43,21.20
2016,08,11,21,44,21.20
2016,08,11,21,45,21.20
2016,08,11,21,46,21.20
2016,08,11,21,47,21.20
2016,08,11,21,48,21.20
2016,08,11,21,49,21.30
2016,08,11,21,50,21.20
2016,08,11,21,51,21.20
2016,08,11,21,52,21.20
2016,08,11,21,53,21.20
2016,08,11,21,54,21.20
2016,08,11,21,55,21.10
2016,08,11,21,56,21.10
2016,08,11,21,57,21.10
2016,08,11,21,58,21.10
2016,08,11,21,59,21.10
2016,08,11,22,00,21.10
2016,08,11,22,01,21.10
2016,08,11,22,02,21.00
2016,08,11,22,03,21.00
2016,08,11,22,04,21.00
2016,08,11,22,05,20.90
2016,08,11,22,06,20.90
2016,08,11,22,07,20.90
2016,08,11,22,08,20.90
2016,08,11,22,09,20.80
2016,08,11,22,10,20.80
2016,08,11,22,11,20.80
2016,08,11,22,12,20.70
2016,08,11,22,13,20.70
2016,08,11,22,14,20.70
2016,08,11,22,15,20.70
2016,08,11,22,16,20.70
2016,08,11,22,17,20.70
2016,08,11,22,18,20.60
2016,08,11,22,19,20.60
2016,08,11,22,20,20.60
2016,08,11,22,21,20.50
2016,08,11,22,22,20.50
2016,08,11,22,23,20.50
2016,08,11,22,24,20.40
2016,08,11,22,25,20.40
2016,08,11,22,26,20.40
2016,08,11,22,27,20.30
2016,08,11,22,28,20.30
2016,08,11,22,29,20.30
2016,08,11,22,30,20.30
2016,08,11,22,31,20.20
2016,08,11,22,32,20.20
2016,08,11,22,33,20.20
2016,08,11,22,34,20.20
2016,08,11,22,35,20.20
2016,08,11,22,36,20.20
2016,08,11,22,37,20.20
2016,08,11,22,38,20.10
2016,08,11,22,39,20.10
2016,08,11,22,40,20.10
2016,08,11,22,41,20.10
2016,08,11,22,42,20.10
2016,08,11,22,43,20.10
2016,08,11,22,44,20.00
2016,08,11,22,45,20.00
2016,08,11,22,46,20.00
2016,08,11,22,47,20.00
2016,08,11,22,48,19.90
2016,08,11,22,49,19.90
2016,08,11,22,50,19.90
2016,08,11,22,51,19.90
2016,08,11,22,52,19.90
2016,08,11,22,53,19.90
2016,08,11,22,54,19.90
2016,08,11,22,55,19.80
2016,08,11,22,56,19.80
2016,08,11,22,57,19.80
2016,08,11,22,58,19.80
2016,08,11,22,59,19.80
2016,08,11,23,00,19.80
2016,08,11,23,01,19.80
2016,08,11,23,02,19.70
2016,08,11,23,03,19.70
2016,08,11,23,04,19.70
2016,08,11,23,05,19.70
2016,08,11,23,06,19.70
2016,08,11,23,07,19.70
2016,08,11,23,08,19.70
2016,08,11,23,09,19.70
2016,08,11,23,10,19.70
2016,08,11,23,11,19.70
2016,08,11,23,12,19.70
2016,08,11,23,13,19.70
2016,08,11,23,14,19.70
2016,08,11,23,15,19.70
2016,08,11,23,16,19.70
2016,08,11,23,17,19.60
2016,08,11,23,18,19.60
2016,08,11,23,19,19.60
2016,08,11,23,20,19.60
2016,08,11,23,21,19.60
2016,08,11,23,22,19.60
2016,08,11,23,23,19.60
2016,08,11,23,24,19.50
2016,08,11,23,25,19.50
2016,08,11,23,26,19.40
2016,08,11,23,27,19.40
2016,08,11,23,28,19.40
2016,08,11,23,29,19.30
2016,08,11,23,30,19.30
2016,08,11,23,31,19.30
2016,08,11,23,32,19.30
2016,08,11,23,33,19.20
2016,08,11,23,34,19.20
2016,08,11,23,35,19.20
2016,08,11,23,36,19.20
2016,08,11,23,37,19.20
2016,08,11,23,38,19.20
2016,08,11,23,39,19.10
2016,08,11,23,40,19.10
2016,08,11,23,41,19.10
2016,08,11,23,42,19.10
2016,08,11,23,43,19.10
2016,08,11,23,44,19.10
2016,08,11,23,45,19.10
2016,08,11,23,46,19.00
2016,08,11,23,47,19.00
2016,08,11,23,48,19.00
2016,08,11,23,49,19.00
2016,08,11,23,50,18.90
2016,08,11,23,51,18.90
2016,08,11,23,52,18.90
2016,08,11,23,53,18.90
2016,08,11,23,54,18.90
2016,08,11,23,55,18.90
2016,08,11,23,56,18.90
2016,08,11,23,57,18.90
2016,08,11,23,58,19.00
2016,08,11,23,59,19.00
